STARLINK-4052, 53171

Orbit data source: Space-Track

STARLINK-4052, 53171 is a payload satellite owned by SpaceX/Seattle (US) in LEO that was launched on Sun, 17 Jul 2022 UTC via an FALCON 9 launch vehicle from the Air Force Eastern Test Range (AFETR). Payload-class satellites include a variety of spacecraft equipped with specific instruments for various scientific and technological missions. These include communications satellites like Starlink; space stations such as the ISS; scientific satellites like the Hubble; Earth observation satellites from companies like Planet Labs, Umbra, and HawkEye 360; GPS; miniature CubeSats for education and research; and military/defense satellites.

Loading next visibility...
Identifier
53171, 2022-083AR
Orbit
LEO
Country
Flag of USUS
Related business
Manufacturer
SpaceX/Seattle
Mission
Operational Commercial Communications
Bus & Motor
STARLINK, Unknown motor
Mass
297 kg wet, ~275 kg dry
Launch date (UTC)
2022-07-17 (4 years ago)
Launch vehicle
FALCON 9
Launch site
Air Force Eastern Test Range (AFETR)
Object type
Payload
Rocket body
Debris
Shape & HBR
Box + 1 Pan, 10.1 m
Radar Cross Section
13.562 m², Large (>1 m²)

Expand to show TLE details & history
Last TLE update: 2 days ago

TLE from 2 days ago
0 STARLINK-4052
1 53171U 22083AR  26171.03396338 -.00000160  00000-0  80846-5 0  9993
2 53171  53.1610  34.3219 0001836 119.1439 240.9736 15.08824296217223
Epoch: 2026-06-20T00:48Z
TLE epoch observation values (Epoch: 2026-06-20T00:48:54.436Z)
Latitude
-0.00003°
Longitude
113.84068°
Altitude
541.299 km
Speed
7.593 km/s
True Right ascension
02h 17m 17s
True Declination
0° 00' 00"
Sunlit
Object was in daylight at epoch
Visualization orbit readout
Latitude
Unknown
Longitude
Unknown
Altitude
Unknown
Speed
Unknown
Apparent Right ascension
Unknown
Apparent Declination
Unknown
Sunlit
N/A
Visualization observer readout
Local Sidereal Time
21:30:57
Azimuth
Unknown
Elevation
Unknown
Doppler factor
Unknown
Orbital elements
Apogee altitude
541.316 km
Perigee altitude
538.775 km
Semi-major axis
6,918.182 km
Eccentricity
0.00018
Inclination
53.161°
RAAN
34.3219°
Arg. of periapsis
119.1439°
True anomaly
240.95521°
Mean anomaly
240.9736°
Eccentric anomaly
240.9644°
Mean motion
3.77186 °/min
Orbital period
95.44 mins
BSTAR
0.0000080846
Loading maneuver chart data...
Computing Atmospheric mass density...
Loading historical data...
Loading historical data...
Loading historical data...
Loading historical data...
Loading historical data...
Loading historical data...
Loading historical data...

Documentation

Showing up to 5 results
|